EGGW

London Luton Airport

Airport
ICAO code
EGGW
IATA Code
LTN
Summary
ICAO Region
EUR
ICAO Territory
Location

Luton, Bedfordshire,

Serving
Luton
Elevation
526 ft
Coordinates
51° 52' 31" N , 0° 22' 10" W
KCC
Metar
Observation
EGGW 311020Z AUTO 21006KT 170V230 7000 -RA BKN005/// //////TCU 10/09 Q0982 RERA
Station
Luton Airport
Date/Time
2023-03-31 10:20:00
Wind direction
210°
Wind speed
06 kts
Lowest cloud amount
broken clouds
Temperature
10°C
Dew point
9°C
Humidity
93%
QNH
982 hPa
Weather condition
n/a

Description

International airport with scheduled and business traffic.

Climatology

Temperate Marine climate/Oceanic climate (Köppen climate classification Cfb). Moderately cool summer and comparatively warm winter with a temperature range of only 14°C. Prevailing south-westerly winds.

Runways

Designator Length Width Surface Rops
8/26 2160 46 ASP Yes/Yes

Airport map

Aerial View

SKYbrary Partners:

Safety knowledge contributed by: